Погода в Холмской

Россия / Краснодарский край     44°50′52″N   38°23′21″E
темп.,
°C
ветер,
м/с
пор.,
м/с
влажн.,
%
обл.,
%
осадки,
мм/ч
давл.,
гПа
погр.,
м
6 марта, сб
сб600:00+6ююз8196531 0.0 1017661
03:00+6ююз9196748 0.0 1017661
06:00+6ююз8186925 0.0 1016630
09:00+8ююз7147034 0.0 1016674
12:00+11ююз91464100 0.0 1015804
15:00+11ююз81366100 0.0 1014922
18:00+8з3785100 0.1 1015577
21:00+2сз71196100 1.4 1018603
7 марта, вс
вс700:000ссз6986100 2.0 1022933
03:00−2с497476 2.1 1025624
06:00−3ссв27730 0.0 1026532
09:00−1ссв35580 0.0 1027798
12:00+1с35460 0.0 10251266
15:00+3сз34450 0.0 10241459
18:00+1ссз125913 0.0 102341
21:00−1юз22659 0.0 102449
8 марта, пн
пн800:00−2ююз23660 0.0 102357
03:00−2ююз23660 0.0 102263
06:00−2ююз23670 0.0 102094
09:00+2юз48586 0.0 10201132
12:00+4юз475674 0.0 10191347
15:00+4юз586186 0.1 10181317
18:00+1юз378796 0.1 1017437
21:000ююз359267 0.3 1018169
9 марта, вт
вт900:00+1юз379273 0.2 1017451
03:00+1ююз259586 0.3 1017258
06:00+1зюз2698100 0.6 1017348
09:00+1ююз2397100 4.4 1018116
12:00+5з4670100 0.7 10191132
15:00+4зсз4677100 2.0 1020898
18:00+1сз357250 0.2 1021226
21:00−2зсз117925 0.2 102321
10 марта, ср
ср1000:00−2ююз11760 0.0 102321
03:00−2юз016722 0.0 102321
06:00−2вюв0167100 0.0 102321
09:000всв125998 0.0 1023388
12:00+4всв335466 0.0 1022863
15:00+4всв335871 0.0 1020991
18:00+1в2277100 0.0 101958
21:000с1180100 0.0 101925